GPS BIIF-11 (41019 NORAD) Tracking and Keplerian Element Data

This shows tracking and keplerian element data for the satellite.

Feedback or suggestion? Click here.




ElementValue
Catalog41019
NameGPS BIIF-11
Epoch Orbit2290
Epoch Day351.57761451
Epoch Year2018
RAAN138.4899
Inclination55.1253
Eccentricity0.004197
Argument of Perigee202.1597
Mean Anonmoly157.6481
Mean Motion2.00564594
Decay Rate7.4E-07
L11 41019U 15062A 18351.57761451 .00000074 00000-0 00000+0 0 9993
L22 41019 55.1253 138.4899 0041970 202.1597 157.6481 2.00564594 22907

Live tracking and technical data element details for GPS BIIF-11 (NORAD 41019). GPS BIIF-11 can be tracked NOW for your location showing map with azimuth and elevation plus other details from your city location.

Track the satellite on the map from your city or location and see movement details for azimuth, elevation, latitude, longitude, range, height, and movement on the map or in text.







IsCatalogInMostPopularTable: catalog: 41019, numindb: 93
Update: records affected: 1



GetName: 41019 GPS BIIF-11

Hit Count: updated at: Wed, 19 Dec 2018 16:08:10 GMT